Content
SEND FEEDBACK

Daily
Averages
Monthly
Summary
United States of America

DEDHAM, MASSACHUSETTS


Home > North America > United States > Massachusetts
Elevation: 64 feet     Latitude: 42 13N     Longitude: 071 07W

WEATHER
 
SELECT A DAY
Number of Records: 135,550;   Date Range: 10/15/98 - 10/21/14
 
SHARE

PRINT THIS DATA

[ ← Previous Day ]
WEATHER ALMANAC - SEPTEMBER 18, 2013
[ Next Day → ]
[ °C ]   °F
Weather ElementAverageHighLow
Temperature58.9 °F72 °F (2:54 pm)48 °F (3:54 am)
Dewpoint43 °F48 °F (7:54 pm)39.9 °F (1:54 am)
Humidity58.2 %77 % (10:54 pm)35 % (4:54 pm)
Barometer30.26 in30.35 in (1:54 am)30.18 in (11:54 pm)
Wind Speed9.1 mph13.8 mph (11:54 pm)
Weather ElementAverage
Wind DirectionWSW (240.9 °)

Weather ElementTotal
Precipitation---
Heating Degree Days5 (Base 65)
Growing Degree Days10 (Base 50)
Averaged from 23 records on September 18, 2013
WEATHER CONDITIONS BREAKOUT
WIND DIRECTION BREAKOUT
WEATHER BY HOUR - SEPTEMBER 18, 2013
[ °C ]   °F
Local TimeTemperatureDewpointHumidityBarometerVisibilityWind DirectionWind SpeedGust SpeedPrecipitationEventsConditions
1:54 AM48.9 °F39.9 °F71 %30.35 inWNW (290°)9.2 mph
2:54 AM48.9 °F39.9 °F71 %30.33 inWNW (290°)9.2 mph
3:54 AM48.0 °F39.9 °F74 %30.33 inWNW (290°)10.4 mph
4:54 AM48.0 °F39.9 °F74 %30.32 inWNW (290°)10.4 mph
5:54 AM48.0 °F39.9 °F74 %30.33 inWNW (290°)11.5 mph
6:54 AM48.0 °F39.9 °F74 %30.34 inWNW (290°)10.4 mph
7:54 AM51.1 °F41.0 °F68 %30.34 inWest (280°)10.4 mph
8:54 AM55.0 °F43.0 °F64 %30.33 inWest (280°)10.4 mph
9:54 AM60.1 °F46.0 °F60 %30.32 inWest (270°)6.9 mph
10:54 AM64.0 °F42.1 °F45 %30.31 inWNW (290°)8.1 mph
11:54 AM66.0 °F44.1 °F45 %30.30 inVariable4.6 mph
12:54 PM68.0 °F42.1 °F39 %30.27 inCalm
1:54 PM70.0 °F42.1 °F36 %30.25 inWest (260°)8.1 mph
2:54 PM72.0 °F44.1 °F37 %30.22 inWest (280°)5.8 mph
3:54 PM71.1 °F43.0 °F36 %30.21 inSW (220°)9.2 mph
4:54 PM70.0 °F41.0 °F35 %30.20 inWSW (240°)5.8 mph
5:54 PM68.0 °F41.0 °F37 %30.19 inWSW (240°)8.1 mph
6:54 PM64.0 °F44.1 °F48 %30.19 inWSW (240°)9.2 mph
7:54 PM60.1 °F48.0 °F64 %30.19 inSW (220°)10.4 mph
8:54 PM59.0 °F45.0 °F60 %30.19 inSW (230°)12.7 mph
9:54 PM57.0 °F48.0 °F72 %30.19 inWSW (240°)12.7 mph
10:54 PM55.0 °F48.0 °F77 %30.19 inWSW (250°)12.7 mph
11:54 PM54.0 °F46.9 °F77 %30.18 inWest (260°)13.8 mph
Hourly data recorded from KMQE, located miles away from Dedham, Massachusetts







STORIES FROM OUR PARTNERS